{"data":{"norad_id":52617,"epoch":"2026-09-20T00:38:32.396640Z","epoch_age_seconds":104139,"freshness":"FRESH","line1":"1 52617U 22052V   26263.02676385  .00035628  00000+0  22261-2 0  9996","line2":"2 52617  53.1607 116.0489 0002641  98.9157 261.2134 15.09153477240328","mean_motion":15.09153477,"eccentricity":0.0002641,"inclination_deg":53.1607,"raan_deg":116.0489,"arg_perigee_deg":98.9157,"mean_anomaly_deg":261.2134,"bstar":0.0022261,"rev_number":24032,"period_min":95.417730664646,"perigee_km":536.95862184407,"apogee_km":540.61214024574,"semimajor_km":6916.9223810449,"source":"CELESTRAK","updated_at":"2026-09-20T09:00:40.071074Z"}}